www.pogodaiklimat.ru

Погода и климат >> Архив погоды >> Испания >> Сарагоса


ПОГОДА в Сарагосе

  • Прогноз погоды в Сарагосе
  • Монитор погоды в Сарагосе

АРХИВ ПОГОДЫ в Сарагосе

Время (UTC), дата Ветер
(напр.,м/с)
 
Видим.   Явления Облачность Т
(С)
Тd
(С)
f
(%)
Тe
(С)
Тes
(С)
Комфортность P
(гПа)
Po
(гПа)
Тmin
(С)
Tmax
(С)
R
(мм)
R24
(мм)
S
(см)
15 12.01 СЗ 11 30 км 1/1 1500 м
[Sc]
+10.7 +2.5 57 +7 +7 1028.1 996.8
18 12.01 СЗ 9 30 км 1/1 1500 м
[Sc]
+8.5 +2.1 64 +4 +4 1028.9 997.4 +11.1
21 12.01 З 10 30 км ясно +7.2 +3.1 75 +2 +2 1029.8 998.1
00 13.01 СЗ 11 20 км 1/1 600 м
[Sc]
+7.3 +2.6 72 +2 +2 1029.7 998.0
03 13.01 СЗ 8 20 км 4/0
[Cs]
+6.7 +2.2 73 +2 +2 1028.8 997.1
06 13.01 СЗ 12 20 км 8/0
[Cs]
+7.2 +2.3 71 +1 +1 1028.1 996.5 +6.5
09 13.01 СЗ 12 30 км 8/3 600 м
[Sc Ac lent Cs]
+8.8 +2.8 66 +4 +4 1028.7 997.2
12 13.01 СЗ 12 30 км 8/4 1000 м
[Sc Ac lent Ci fib]
+11.9 +3.6 57 +8 +8 1027.6 996.5
15 13.01 СЗ 13 30 км 6/1 1000 м
[Sc Ac lent Ci fib]
+12.7 +4.4 57 +9 +9 1025.6 994.6
18 13.01 СЗ 10 30 км 5/1 1000 м
[Sc Ac lent Ci fib]
+10.0 +4.1 67 +6 +6 1026.3 995.0 +12.9
21 13.01 З 10 25 км 5/1 600 м
[Sc Cs]
+9.1 +4.1 71 +4 +4 1025.6 994.3
00 14.01 СЗ 14 25 км 1/1 600 м
[Sc Cs]
+8.7 +4.5 75 +3 +3 1025.2 993.8
03 14.01 СЗ 14 25 км ясно +8.1 +3.7 74 +2 +2 1024.9 993.5
06 14.01 З 12 20 км 1/1 600 м
[Sc]
+8.2 +3.0 70 +3 +3 1023.8 992.4 +7.7
09 14.01 З 11 30 км 4/1 1000 м
[Sc As trans Ci fib]
+10.1 +3.4 63 +6 +6 1024.3 993.1
12 14.01 СЗ 15
{22}
30 км 3/1 1000 м
[Sc As trans Ci fib]
+13.0 +4.2 55 +9 +9 1022.3 991.5
15 14.01 СЗ 11
{22}
30 км 4/3 1000 м
[Sc As trans Ci fib]
+13.3 +4.7 56 +10 +10 1022.0 991.2
18 14.01 СЗ 11
{22}
30 км 1/1 1000 м
[Sc]
+10.7 +4.8 67 +6 +6 1022.2 991.1 +14.4
21 14.01 СЗ 9 30 км ясно +9.4 +4.6 72 +5 +5 1023.0 991.8
00 15.01 СЗ 5 30 км ясно +8.3 +4.3 76 +5 +5 1023.3 991.9
03 15.01 З 3 30 км ясно +5.3 +2.6 83 +2 +2 1023.4 991.7
06 15.01 З 3 30 км ясно +5.3 +2.6 83 +2 +2 1023.4 991.7
09 15.01 З 13 30 км ясно +7.4 +3.4 76 +1 +1 1023.7 992.2
12 15.01 СЗ 4 30 км ясно +10.8 +4.0 63 +9 +12 1022.7 991.6
15 15.01 СВ 1 25 км ясно +13.7 +3.7 51 +15 +17 1020.0 989.3
18 15.01 Ю 3 30 км 1/0
[Ci fib]
+8.6 +2.2 64 +7 +7 1020.6 989.3 +13.9
21 15.01 В 3 25 км ясно +5.1 +2.6 84 +2 +2 1021.4 989.7
00 16.01 ЮВ 2 20 км ясно +3.4 +1.8 89 0 0 1021.8 989.9
03 16.01 ЮВ 3 6000 м дымка 1/1 300 м
[St]
+1.1 +0.2 94 -3 -3 1021.0 988.9
06 16.01 В 2 100 м туман ?/? +2.4 +2.3 99 -1 -1 1020.0 988.1 +0.9
09 16.01 В 2 200 м туман н/о +3.4 +3.3 99 +1 +1 1020.5 988.7
12 16.01 В 2 500 м туман н/о +4.3 +4.0 98 +2 +2 1019.5 987.8
15 16.01 С 1 900 м туман н/о +4.7 +4.1 96 +4 +4 1018.1 986.5
18 16.01 СЗ 3 4000 м дымка {туман} 10/10 100 м
[St]
+4.1 +2.9 92 0 0 1018.8 987.1 +4.8
21 16.01 З 6 3500 м дымка 10/10 100 м
[St]
+3.8 +2.8 93 -2 -2 1020.1 988.3
00 17.01 З 3 8000 м дымка 5/5 200 м
[St]
+3.4 +1.8 89 -1 -1 1019.8 988.0
03 17.01 СЗ 4 300 м туман ?/? +1.9 +1.6 98 -3 -3 1019.6 987.6
06 17.01 СЗ 4 900 м туман ?/? +0.3 +0.3 100 -5 -5 1019.6 987.4 +0.2
09 17.01 З 7 9000 м дымка {туман} 10/4 1500 м
[Sc Ac As]
+4.0 +2.0 87 -2 -2 1019.8 988.1
12 17.01 СЗ 10 15 км {туман} 9/3 1000 м
[Sc Ac As]
+9.0 +3.6 69 +4 +4 1019.2 988.0
15 17.01 СЗ 8 30 км 9/1 1000 м
[Cu hum Ac As]
+9.9 +2.3 59 +6 +6 1018.2 987.2
18 17.01 З 8 30 км 3/0
[Cs]
+7.5 +0.7 62 +3 +3 1019.1 987.8 +10.1
21 17.01 З 8 30 км 3/0
[Cs]
+7.5 +0.7 62 +3 +3 1019.1 987.8 +10.1
00 18.01 СЗ 7 20 км 4/0
[Cs]
+5.2 +1.1 75 -0 -0 1021.5 989.8
03 18.01 СЗ 6 20 км ясно +4.4 +0.5 76 -1 -1 1020.8 989.1
06 18.01 СЗ 6 25 км 6/0
[Cs]
+3.7 +0.4 79 -2 -2 1020.4 988.6 +3.5
09 18.01 СЗ 6 30 км 10/0
[Ac As Cs]
+5.1 +0.8 74 0 +1 1020.3 988.7
12 18.01 СЗ 6 30 км 10/0
[Ac As Cs]
+8.7 +0.6 57 +5 +7 1019.6 988.4
15 18.01 СЗ 3 30 км 10/0
[As trans Cs]
+9.3 +1.2 57 +7 +8 1017.6 986.5
18 18.01 З 4 25 км 5/1 2000 м
[Sc Ac cuf Cs]
+6.9 +1.4 68 +4 +4 1017.6 986.2 +9.3
21 18.01 З 4 20 км 9/3 600 м
[St Ac As Cs]
+6.5 +1.6 71 +3 +3 1017.7 986.3
00 19.01 ЮЗ 4 20 км ясно +5.9 -0.6 63 +2 +2 1017.9 986.4
03 19.01 СЗ 1 20 км 4/0
[Ac trans]
+1.8 -1.1 81 0 0 1018.0 986.0
06 19.01 З 5 20 км 5/1 1000 м
[St Ac As]
+3.9 +0.9 81 -1 -1 1017.3 985.6 +1.3
09 19.01 В 2 30 км 3/0
[Ac trans Cs]
+3.1 +0.2 81 +1 +2 1017.9 986.1
12 19.01 З 5 30 км 6/3 1000 м
[Sc Ac As Ci sp]
+10.7 +1.5 53 +8 +10 1015.6 984.7

 

Местоположение метеостанции Сарагоса (Испания): широта 41.67 долгота -1.00 высота над уровнем моря 258 м.

В архиве по умолчанию представлена погода в Сарагосе за последнюю неделю. Архивные данные за месяц целиком и за предыдущие месяцы, начиная с января 2011 года, Вы можете получить, выбрав интересующий диапазон дат из раскрывающегося списка и нажав кнопку "Ввод!".


*Определитесь, кто Вы:
робот инопланетянин человек

Внимание! Время в таблицах - всемирное. Для получения местного времени необходимо прибавить поправку, которая равна 1 ч.

Смотрите также архив погоды в соседних городах и на ближайших метеорологических станциях:

Погода в Барденас-Реалесе (Испания) (71 км)
Погода в Каламоче (Испания) (86 км)
Погода в Молина-де-Арагоне (Испания) (117 км)
Погода в Сории (Испания) (123 км)
Погода в Памплоне (Испания) (133 км)
Погода в Лериде (Испания) (133 км)
Погода в Рефуджо де Каса Педро (Испания) (138 км)
Погода в Логроньо (Испания) (140 км)
Погода в Рефуджо де Белагуа (Испания) (143 км)
Погода в Теруэле (Испания) (147 км)

Пояснения к столбцам:

Ветер - указаны скорость ветра в м/с - средняя за 10 мин, порывы в срок и между сроками (в фигурных скобках) и направление, откуда дует ветер: С - северный, СВ - северо-восточный, В - восточный, ЮВ - юго-восточный, Ю - южный, ЮЗ - юго-западный, З - западный, СЗ - северо-западный.
Видимость - горизонтальная дальность видимости в метрах или километрах. При видимости от 1 до 10 км при отсутствии осадков обычно наблюдается дымка, при ухудшении видимости до 1 км и менее - туман. В сухую погоду видимость может ухудшаться дымом, пылью или мглою.
Явления - указаны атмосферные явления, наблюдавшиеся в срок или в последний час перед сроком; фигурными скобками обозначены явления, наблюдавшиеся между сроками (за 1-3 часа до срока); квадратными скобками обозначены град или гололедные отложения с указанием их диаметра в мм.
Облачность - указаны через наклонную черту общая и нижняя облачность в баллах и высота нижней границы облаков в метрах; квадратными скобками обозначены формы облаков: Ci - перистые, Cs - перисто-слоистые, Cc - перисто-кучевые, Ac - высококучевые, As - высокослоистые, Sc - слоисто-кучевые, Ns - слоисто-дождевые, Cu - кучевые, Cb - кучево-дождевые. Подробнее классификацию облаков см. в Атласе облаков (PDF).
T - Температура воздуха - температура, измеренная на высоте 2 м над землей.
Td - Температура точки росы - температура, при понижении до которой содержащийся в воздухе водяной пар достигнет насыщения.
f - Относительная влажность воздуха - влажноcть воздуха, измеренная на высоте 2 м над землей.
Te - Эффективная температура - температура, которую ощущает одетый по сезону человек в тени. Характеристика душности погоды. При расчете учитывается влияние влажности воздуха и скорости ветра на теплоощущения человека.
Tes - Эффективная температура на солнце - температура, которую ощущает человек, с поправкой на солнечный нагрев. Характеристика знойности погоды. Зависит от высоты солнца над горизонтом, облачности и скорости ветра. Ночью, в пасмурную погоду, а также при ветре 12 м/с и более поправка равна нулю.
P - Атмосферное давление - приведенное к уровню моря атмосферное давление.
Po - Атмосферное давление - измеренное на уровне метеостанции атмосферное давление.
Tmin - Минимальная температура - минимум температуры воздуха на высоте 2 м над землей.
Tmax - Максимальная температура - максимум температуры воздуха на высоте 2 м над землей.
R - Количество осадков - Количество выпавших осадков за период времени, мм. При наведении курсора мыши на число - период времени, за который выпало указанное количество осадков.
R24 - Количество осадков - Количество выпавших осадков за 24 часа, мм.
S - Снежный покров - Высота снежного покрова, см. При наведении курсора мыши на число - состояние снежного покрова и степень покрытия местности в баллах.